| time (UTC) | temp F | wind direction | speed MPH | gust MPH | rain 1hr in | rain 24hr in | rain mn in | humidity % | barometer mb |
| 20260905103819 | 52 | 74 | 0.0 | 0.0 | 0.00 | 0.15 | 0.00 | 93 | 1023.4 |
| 20260905103220 | 52 | 63 | 0.0 | 0.0 | 0.00 | 0.15 | 0.00 | 93 | 1023.4 |
| 20260905102619 | 52 | 90 | 0.0 | 0.0 | 0.00 | 0.15 | 0.00 | 92 | 1023.4 |
| 20260905102019 | 52 | 106 | 0.0 | 0.0 | 0.00 | 0.15 | 0.00 | 92 | 1023.4 |
| 20260905101419 | 52 | 97 | 0.0 | 0.0 | 0.00 | 0.15 | 0.00 | 92 | 1023.3 |
| 20260905100820 | 52 | 44 | 0.0 | 0.0 | 0.00 | 0.15 | 0.00 | 92 | 1023.3 |
| 20260905100219 | 52 | 51 | 0.0 | 0.0 | 0.00 | 0.15 | 0.00 | 92 | 1023.4 |
| 20260905095620 | 52 | 84 | 0.0 | 0.0 | 0.00 | 0.15 | 0.00 | 92 | 1023.4 |
| 20260905095020 | 53 | 111 | 0.0 | 0.0 | 0.00 | 0.15 | 0.00 | 92 | 1023.3 |
| 20260905094420 | 53 | 114 | 0.0 | 0.0 | 0.00 | 0.15 | 0.00 | 92 | 1023.3 |
| 20260905093819 | 53 | 107 | 0.0 | 0.0 | 0.00 | 0.15 | 0.00 | 92 | 1023.3 |
| 20260905093244 | 54 | 54 | 0.0 | 0.0 | 0.00 | 0.15 | 0.00 | 92 | 1023.3 |
| 20260905092619 | 53 | 75 | 0.0 | 0.0 | 0.00 | 0.15 | 0.00 | 92 | 1023.3 |
| 20260905092019 | 54 | 88 | 0.0 | 0.0 | 0.00 | 0.15 | 0.00 | 92 | 1023.4 |
| 20260905091419 | 54 | 123 | 0.0 | 0.0 | 0.00 | 0.15 | 0.00 | 92 | 1023.4 |
| 20260905090857 | 54 | 135 | 0.0 | 0.0 | 0.00 | 0.15 | 0.00 | 92 | 1023.4 |
| 20260905090219 | 54 | 130 | 0.0 | 0.0 | 0.00 | 0.15 | 0.00 | 92 | 1023.3 |
| 20260905085619 | 54 | 57 | 0.0 | 0.0 | 0.00 | 0.15 | 0.00 | 92 | 1023.5 |
| 20260905085019 | 54 | 69 | 0.0 | 0.0 | 0.00 | 0.15 | 0.00 | 92 | 1023.6 |
| 20260905084432 | 54 | 74 | 0.0 | 0.0 | 0.00 | 0.15 | 0.00 | 92 | 1023.7 |
| 20260905083819 | 54 | 51 | 0.0 | 0.0 | 0.00 | 0.15 | 0.00 | 92 | 1023.6 |
| 20260905083220 | 54 | 72 | 0.0 | 0.0 | 0.00 | 0.15 | 0.00 | 92 | 1023.6 |
| 20260905082619 | 54 | 108 | 0.0 | 0.0 | 0.00 | 0.15 | 0.00 | 92 | 1023.6 |
| 20260905082019 | 54 | 71 | 0.0 | 0.0 | 0.00 | 0.15 | 0.00 | 92 | 1023.6 |
| 20260905081521 | 54 | 49 | 0.0 | 0.0 | 0.00 | 0.15 | 0.00 | 92 | 1023.6 |
| 20260905080819 | 53 | 32 | 0.0 | 0.0 | 0.00 | 0.15 | 0.00 | 92 | 1023.7 |
| 20260905080219 | 53 | 54 | 0.0 | 0.0 | 0.00 | 0.15 | 0.00 | 92 | 1023.8 |
| 20260905075619 | 53 | 100 | 0.0 | 0.0 | 0.00 | 0.15 | 0.00 | 92 | 1023.8 |
| 20260905075019 | 53 | 109 | 0.0 | 0.0 | 0.00 | 0.15 | 0.00 | 92 | 1023.7 |
| 20260905074419 | 53 | 96 | 0.0 | 0.0 | 0.00 | 0.15 | 0.00 | 91 | 1023.8 |
| 20260905073819 | 53 | 89 | 0.0 | 0.0 | 0.00 | 0.15 | 0.00 | 91 | 1023.8 |
| 20260905073220 | 53 | 81 | 0.0 | 0.0 | 0.00 | 0.15 | 0.00 | 91 | 1023.9 |
| 20260905072619 | 54 | 80 | 0.0 | 0.0 | 0.00 | 0.15 | 0.00 | 91 | 1023.9 |
| 20260905072019 | 53 | 75 | 0.0 | 0.0 | 0.00 | 0.15 | 0.00 | 91 | 1023.9 |
| 20260905071419 | 53 | 271 | 0.0 | 0.0 | 0.00 | 0.15 | 0.00 | 91 | 1023.8 |
| 20260905070820 | 53 | 271 | 0.0 | 0.0 | 0.00 | 0.15 | 0.00 | 91 | 1023.9 |
| 20260905070244 | 53 | 36 | 0.0 | 0.0 | 0.00 | 0.15 | 0.00 | 91 | 1024.0 |
| 20260905065632 | 53 | 58 | 0.0 | 0.0 | 0.00 | 0.15 | 0.00 | 91 | 1023.9 |
| 20260905065019 | 53 | 58 | 0.0 | 0.0 | 0.00 | 0.15 | 0.00 | 91 | 1023.9 |
| 20260905064419 | 54 | 63 | 0.0 | 0.0 | 0.00 | 0.15 | 0.00 | 91 | 1023.9 |
| 20260905063819 | 54 | 83 | 0.0 | 0.0 | 0.00 | 0.15 | 0.00 | 91 | 1024.0 |
| 20260905063219 | 54 | 60 | 0.0 | 0.0 | 0.00 | 0.15 | 0.00 | 91 | 1024.0 |
| 20260905062620 | 54 | 92 | 0.0 | 0.0 | 0.00 | 0.15 | 0.00 | 91 | 1024.0 |
| 20260905062031 | 54 | 85 | 0.0 | 0.0 | 0.00 | 0.15 | 0.00 | 91 | 1024.0 |
| 20260905061432 | 53 | 88 | 0.0 | 0.0 | 0.00 | 0.15 | 0.00 | 91 | 1024.0 |
| 20260905060832 | 54 | 124 | 0.0 | 0.0 | 0.00 | 0.15 | 0.00 | 91 | 1024.0 |
| 20260905060219 | 54 | 74 | 0.0 | 0.0 | 0.00 | 0.15 | 0.30 | 91 | 1023.9 |
| 20260905055620 | 54 | 84 | 0.0 | 0.0 | 0.00 | 0.15 | 0.30 | 91 | 1023.8 |
| 20260905055020 | 54 | 112 | 0.0 | 0.0 | 0.00 | 0.15 | 0.30 | 91 | 1023.8 |
| 20260905054445 | 55 | 66 | 0.0 | 0.0 | 0.00 | 0.15 | 0.30 | 91 | 1023.7 |
| 20260905053820 | 55 | 40 | 0.0 | 0.0 | 0.00 | 0.15 | 0.30 | 91 | 1023.7 |
| 20260905053220 | 55 | 17 | 0.0 | 0.0 | 0.00 | 0.15 | 0.30 | 91 | 1023.7 |
| 20260905052619 | 55 | 82 | 0.0 | 0.0 | 0.00 | 0.15 | 0.30 | 91 | 1023.7 |
| 20260905052019 | 55 | 50 | 0.0 | 0.0 | 0.00 | 0.15 | 0.30 | 91 | 1023.8 |
| 20260905051419 | 55 | 81 | 0.0 | 0.0 | 0.00 | 0.15 | 0.30 | 91 | 1023.7 |
| 20260905050819 | 55 | 62 | 0.0 | 0.0 | 0.00 | 0.15 | 0.30 | 91 | 1023.7 |
| 20260905050219 | 55 | 32 | 0.0 | 0.0 | 0.00 | 0.15 | 0.30 | 91 | 1023.6 |
| 20260905045620 | 55 | 0 | 0.0 | 0.0 | 0.00 | 0.15 | 0.30 | 91 | 1023.6 |
| 20260905045019 | 55 | 97 | 0.0 | 0.0 | 0.00 | 0.15 | 0.30 | 91 | 1023.7 |
| 20260905044419 | 55 | 105 | 0.0 | 0.0 | 0.00 | 0.15 | 0.30 | 90 | 1023.8 |
| 20260905043831 | 55 | 43 | 0.0 | 0.0 | 0.00 | 0.15 | 0.30 | 90 | 1023.8 |
| 20260905043220 | 56 | 84 | 0.0 | 0.0 | 0.00 | 0.15 | 0.30 | 90 | 1023.9 |
| 20260905042620 | 56 | 105 | 0.0 | 0.0 | 0.00 | 0.15 | 0.30 | 90 | 1023.9 |
| 20260905042019 | 56 | 93 | 0.0 | 0.0 | 0.00 | 0.15 | 0.30 | 90 | 1023.9 |
| 20260905041419 | 56 | 87 | 0.0 | 4.0 | 0.00 | 0.15 | 0.30 | 90 | 1023.8 |
| 20260905040819 | 57 | 100 | 0.0 | 5.0 | 0.00 | 0.15 | 0.30 | 90 | 1023.9 |
| 20260905040219 | 56 | 86 | 2.0 | 4.0 | 0.00 | 0.15 | 0.30 | 91 | 1024.2 |
| 20260905035620 | 56 | 96 | 0.0 | 9.0 | 0.00 | 0.15 | 0.30 | 91 | 1024.1 |
| 20260905035032 | 56 | 77 | 3.0 | 7.0 | 0.00 | 0.15 | 0.30 | 91 | 1024.0 |
| 20260905034420 | 56 | 72 | 3.0 | 6.0 | 0.00 | 0.15 | 0.30 | 91 | 1023.8 |
| 20260905033832 | 56 | 83 | 0.0 | 0.0 | 0.00 | 0.15 | 0.30 | 91 | 1023.8 |
| 20260905033220 | 57 | 84 | 0.0 | 5.0 | 0.00 | 0.15 | 0.30 | 91 | 1023.7 |
| 20260905032620 | 57 | 79 | 0.0 | 7.0 | 0.00 | 0.15 | 0.30 | 91 | 1023.8 |
| 20260905032019 | 57 | 85 | 3.0 | 7.0 | 0.00 | 0.15 | 0.30 | 91 | 1023.8 |
| 20260905031419 | 57 | 83 | 5.0 | 6.0 | 0.01 | 0.15 | 0.30 | 91 | 1023.7 |
| 20260905030821 | 57 | 75 | 2.0 | 6.0 | 0.01 | 0.15 | 0.30 | 91 | 1023.7 |
| 20260905030219 | 57 | 78 | 3.0 | 6.0 | 0.01 | 0.15 | 0.30 | 91 | 1023.7 |
| 20260905025619 | 58 | 73 | 2.0 | 5.0 | 0.01 | 0.15 | 0.30 | 91 | 1023.7 |
| 20260905025019 | 58 | 97 | 3.0 | 4.0 | 0.01 | 0.15 | 0.30 | 91 | 1023.6 |
| 20260905024419 | 58 | 69 | 0.0 | 5.0 | 0.01 | 0.15 | 0.30 | 90 | 1023.4 |
| 20260905023819 | 58 | 86 | 3.0 | 7.0 | 0.01 | 0.15 | 0.30 | 90 | 1023.5 |
| 20260905023220 | 58 | 69 | 3.0 | 0.0 | 0.01 | 0.15 | 0.30 | 90 | 1023.4 |
| 20260905022620 | 59 | 350 | 0.0 | 0.0 | 0.01 | 0.15 | 0.30 | 90 | 1023.2 |
| 20260905022020 | 59 | 350 | 0.0 | 0.0 | 0.02 | 0.15 | 0.30 | 90 | 1023.3 |
| 20260905021444 | 59 | 350 | 0.0 | 0.0 | 0.01 | 0.14 | 0.28 | 89 | 1023.4 |
| 20260905020819 | 59 | 9 | 0.0 | 0.0 | 0.02 | 0.14 | 0.28 | 89 | 1023.5 |
| 20260905020220 | 59 | 3 | 0.0 | 2.0 | 0.02 | 0.14 | 0.28 | 89 | 1023.5 |
| 20260905015645 | 60 | 2 | 0.0 | 0.0 | 0.03 | 0.14 | 0.28 | 88 | 1023.6 |
| 20260905015019 | 60 | 205 | 0.0 | 3.0 | 0.03 | 0.14 | 0.28 | 88 | 1023.9 |
| 20260905014444 | 60 | 127 | 0.0 | 3.0 | 0.04 | 0.14 | 0.28 | 88 | 1024.0 |
| 20260905013819 | 60 | 179 | 0.0 | 1.0 | 0.05 | 0.14 | 0.28 | 88 | 1024.0 |
| 20260905013219 | 60 | 125 | 1.0 | 5.0 | 0.06 | 0.14 | 0.28 | 88 | 1024.0 |
| 20260905012619 | 60 | 116 | 1.0 | 7.0 | 0.06 | 0.14 | 0.28 | 87 | 1023.8 |
| 20260905012020 | 60 | 254 | 0.0 | 4.0 | 0.06 | 0.13 | 0.26 | 88 | 1023.6 |
| 20260905011419 | 60 | 192 | 0.0 | 11.0 | 0.07 | 0.13 | 0.26 | 88 | 1023.5 |
| 20260905010909 | 60 | 305 | 2.0 | 8.0 | 0.11 | 0.12 | 0.24 | 88 | 1023.5 |
| 20260905010219 | 60 | 0 | 0.0 | 9.0 | 0.11 | 0.12 | 0.24 | 88 | 1023.7 |
| 20260905005619 | 61 | 334 | 3.0 | 11.0 | 0.09 | 0.11 | 0.21 | 89 | 1023.9 |
| 20260905005019 | 61 | 322 | 0.0 | 7.0 | 0.09 | 0.11 | 0.21 | 89 | 1024.0 |
| 20260905004420 | 62 | 294 | 0.0 | 4.0 | 0.08 | 0.09 | 0.19 | 89 | 1024.2 |
| 20260905003832 | 62 | 39 | 3.0 | 4.0 | 0.07 | 0.08 | 0.17 | 88 | 1024.2 |
| 20260905003219 | 62 | 37 | 0.0 | 5.0 | 0.06 | 0.07 | 0.15 | 87 | 1024.1 |
| 20260905002619 | 63 | 89 | 0.0 | 6.0 | 0.06 | 0.07 | 0.15 | 86 | 1024.0 |
| 20260905002044 | 63 | 320 | 2.0 | 7.0 | 0.05 | 0.06 | 0.13 | 85 | 1023.8 |
| 20260905001419 | 64 | 315 | 2.0 | 3.0 | 0.04 | 0.05 | 0.11 | 82 | 1023.9 |
| 20260905000819 | 66 | 277 | 1.0 | 3.0 | 0.00 | 0.01 | 0.02 | 80 | 1024.0 |
| 20260905000233 | 66 | 1 | 0.0 | 1.0 | 0.00 | 0.01 | 0.02 | 78 | 1023.8 |
| 20260904235620 | 67 | 308 | 0.0 | 9.0 | 0.00 | 0.01 | 0.02 | 77 | 1023.7 |
| 20260904235019 | 67 | 98 | 4.0 | 11.0 | 0.00 | 0.01 | 0.02 | 74 | 1023.5 |
| 20260904234420 | 67 | 91 | 5.0 | 14.0 | 0.01 | 0.01 | 0.02 | 74 | 1023.4 |
| 20260904233820 | 66 | 70 | 5.0 | 13.0 | 0.01 | 0.01 | 0.02 | 78 | 1023.4 |
| 20260904233220 | 65 | 54 | 4.0 | 4.0 | 0.01 | 0.01 | 0.02 | 83 | 1023.2 |
| 20260904232619 | 65 | 73 | 0.0 | 4.0 | 0.01 | 0.01 | 0.02 | 83 | 1022.7 |
| 20260904231431 | 65 | 88 | 0.0 | 0.0 | 0.01 | 0.01 | 0.02 | 82 | 1022.5 |
| 20260904230819 | 64 | 303 | 0.0 | 0.0 | 0.01 | 0.01 | 0.02 | 82 | 1022.3 |
| 20260904230220 | 65 | 291 | 0.0 | 2.0 | 0.01 | 0.01 | 0.02 | 83 | 1022.4 |
| 20260904225619 | 65 | 313 | 0.0 | 2.0 | 0.01 | 0.01 | 0.02 | 82 | 1022.5 |
| 20260904225019 | 64 | 338 | 0.0 | 5.0 | 0.01 | 0.01 | 0.02 | 80 | 1022.4 |
| 20260904224420 | 66 | 307 | 0.0 | 2.0 | 0.00 | 0.00 | 0.00 | 80 | 1022.3 |
| 20260904223820 | 66 | 325 | 0.0 | 4.0 | 0.00 | 0.00 | 0.00 | 80 | 1022.2 |
| 20260904223219 | 66 | 291 | 0.0 | 6.0 | 0.00 | 0.00 | 0.00 | 81 | 1021.9 |
| 20260904222620 | 65 | 285 | 2.0 | 6.0 | 0.00 | 0.00 | 0.00 | 81 | 1022.0 |
| 20260904222020 | 66 | 286 | 2.0 | 9.0 | 0.00 | 0.00 | 0.00 | 81 | 1022.1 |
| 20260904221419 | 66 | 278 | 0.0 | 6.0 | 0.00 | 0.00 | 0.00 | 80 | 1022.1 |
| 20260904220819 | 67 | 276 | 1.0 | 4.0 | 0.00 | 0.00 | 0.00 | 79 | 1022.0 |
| 20260904220231 | 68 | 136 | 0.0 | 6.0 | 0.00 | 0.00 | 0.00 | 72 | 1022.2 |
| 20260904215620 | 67 | 154 | 0.0 | 6.0 | 0.00 | 0.00 | 0.00 | 73 | 1022.3 |
| 20260904215019 | 67 | 268 | 0.0 | 9.0 | 0.00 | 0.00 | 0.00 | 71 | 1022.0 |
| 20260904214419 | 68 | 216 | 2.0 | 8.0 | 0.00 | 0.00 | 0.00 | 69 | 1022.0 |
| 20260904213819 | 70 | 177 | 3.0 | 10.0 | 0.00 | 0.00 | 0.00 | 64 | 1021.9 |
| 20260904213219 | 71 | 181 | 0.0 | 12.0 | 0.00 | 0.00 | 0.00 | 61 | 1022.0 |
| 20260904212620 | 72 | 172 | 2.0 | 12.0 | 0.00 | 0.00 | 0.00 | 56 | 1021.8 |
| 20260904212020 | 72 | 176 | 2.0 | 17.0 | 0.00 | 0.00 | 0.00 | 59 | 1021.8 |
| 20260904211419 | 73 | 268 | 3.0 | 14.0 | 0.00 | 0.00 | 0.00 | 57 | 1021.7 |
| 20260904210819 | 75 | 216 | 3.0 | 16.0 | 0.00 | 0.00 | 0.00 | 56 | 1021.6 |
| 20260904210220 | 79 | 148 | 6.0 | 17.0 | 0.00 | 0.00 | 0.00 | 48 | 1021.6 |
| 20260904205620 | 81 | 92 | 8.0 | 12.0 | 0.00 | 0.00 | 0.00 | 45 | 1021.5 |
| 20260904205031 | 81 | 135 | 4.0 | 14.0 | 0.00 | 0.00 | 0.00 | 46 | 1021.5 |
| 20260904204444 | 82 | 105 | 7.0 | 16.0 | 0.00 | 0.00 | 0.00 | 44 | 1021.5 |
| 20260904203820 | 80 | 100 | 7.0 | 16.0 | 0.00 | 0.00 | 0.00 | 47 | 1021.5 |
| 20260904203220 | 80 | 108 | 6.0 | 15.0 | 0.00 | 0.00 | 0.00 | 46 | 1021.6 |
| 20260904202709 | 81 | 136 | 7.0 | 14.0 | 0.00 | 0.00 | 0.00 | 45 | 1021.7 |
| 20260904202019 | 83 | 102 | 4.0 | 13.0 | 0.00 | 0.00 | 0.00 | 43 | 1021.8 |
| 20260904201420 | 83 | 117 | 0.0 | 13.0 | 0.00 | 0.00 | 0.00 | 42 | 1022.0 |
| 20260904200819 | 85 | 354 | 0.0 | 9.0 | 0.00 | 0.00 | 0.00 | 42 | 1022.1 |
| 20260904200219 | 82 | 88 | 2.0 | 15.0 | 0.00 | 0.00 | 0.00 | 44 | 1022.2 |
| 20260904195644 | 83 | 36 | 0.0 | 10.0 | 0.00 | 0.00 | 0.00 | 44 | 1022.2 |
| 20260904195044 | 84 | 15 | 2.0 | 8.0 | 0.00 | 0.00 | 0.00 | 44 | 1022.2 |
| 20260904194419 | 82 | 331 | 0.0 | 9.0 | 0.00 | 0.00 | 0.00 | 45 | 1022.2 |
| 20260904193820 | 81 | 37 | 3.0 | 11.0 | 0.00 | 0.00 | 0.00 | 43 | 1022.3 |
| 20260904193220 | 82 | 348 | 2.0 | 11.0 | 0.00 | 0.00 | 0.00 | 41 | 1022.4 |
| 20260904192620 | 81 | 31 | 3.0 | 10.0 | 0.00 | 0.00 | 0.00 | 41 | 1022.4 |
| 20260904192019 | 78 | 82 | 4.0 | 12.0 | 0.00 | 0.00 | 0.00 | 47 | 1022.5 |
| 20260904191420 | 77 | 49 | 4.0 | 14.0 | 0.00 | 0.00 | 0.00 | 52 | 1022.7 |
| 20260904190819 | 78 | 95 | 3.0 | 13.0 | 0.00 | 0.00 | 0.00 | 52 | 1022.8 |
| 20260904190220 | 76 | 44 | 7.0 | 13.0 | 0.00 | 0.00 | 0.00 | 54 | 1022.9 |
| 20260904185619 | 76 | 73 | 6.0 | 17.0 | 0.00 | 0.00 | 0.00 | 53 | 1023.0 |
| 20260904185019 | 75 | 82 | 5.0 | 16.0 | 0.00 | 0.00 | 0.00 | 55 | 1023.2 |
| 20260904184444 | 76 | 76 | 5.0 | 20.0 | 0.00 | 0.00 | 0.00 | 54 | 1023.3 |
| 20260904183819 | 77 | 69 | 9.0 | 17.0 | 0.00 | 0.00 | 0.00 | 51 | 1023.2 |
| 20260904183219 | 80 | 132 | 3.0 | 9.0 | 0.00 | 0.00 | 0.00 | 48 | 1023.3 |
| 20260904182619 | 80 | 172 | 0.0 | 7.0 | 0.00 | 0.00 | 0.00 | 51 | 1023.2 |
| 20260904182020 | 80 | 274 | 2.0 | 6.0 | 0.00 | 0.00 | 0.00 | 48 | 1023.4 |
| 20260904181431 | 80 | 271 | 2.0 | 8.0 | 0.00 | 0.00 | 0.00 | 50 | 1023.4 |
| 20260904180819 | 79 | 233 | 3.0 | 9.0 | 0.00 | 0.00 | 0.00 | 52 | 1023.5 |
| 20260904180219 | 78 | 226 | 0.0 | 9.0 | 0.00 | 0.00 | 0.00 | 54 | 1023.6 |
| 20260904175644 | 79 | 258 | 0.0 | 8.0 | 0.00 | 0.00 | 0.00 | 54 | 1023.7 |
| 20260904175019 | 78 | 257 | 2.0 | 6.0 | 0.00 | 0.00 | 0.00 | 54 | 1023.8 |
| 20260904174419 | 78 | 279 | 0.0 | 8.0 | 0.00 | 0.00 | 0.00 | 51 | 1023.9 |
| 20260904173845 | 77 | 286 | 2.0 | 7.0 | 0.00 | 0.00 | 0.00 | 53 | 1023.9 |
| 20260904173219 | 78 | 291 | 0.0 | 4.0 | 0.00 | 0.00 | 0.00 | 54 | 1024.1 |
| 20260904172722 | 78 | 53 | 0.0 | 5.0 | 0.00 | 0.00 | 0.00 | 54 | 1024.2 |
| 20260904172020 | 77 | 326 | 0.0 | 9.0 | 0.00 | 0.00 | 0.00 | 56 | 1024.3 |
| 20260904171419 | 76 | 290 | 0.0 | 8.0 | 0.00 | 0.00 | 0.00 | 58 | 1024.4 |
| 20260904170819 | 76 | 284 | 2.0 | 6.0 | 0.00 | 0.00 | 0.00 | 59 | 1024.5 |
| 20260904170244 | 76 | 88 | 0.0 | 7.0 | 0.00 | 0.00 | 0.00 | 56 | 1024.5 |
| 20260904165619 | 76 | 347 | 0.0 | 6.0 | 0.00 | 0.00 | 0.00 | 61 | 1024.6 |
| 20260904165020 | 75 | 252 | 0.0 | 4.0 | 0.00 | 0.00 | 0.00 | 59 | 1024.7 |
| 20260904164419 | 74 | 274 | 0.0 | 6.0 | 0.00 | 0.00 | 0.00 | 62 | 1024.7 |
| 20260904163844 | 73 | 191 | 0.0 | 7.0 | 0.00 | 0.00 | 0.00 | 63 | 1024.8 |
| 20260904163309 | 73 | 349 | 0.0 | 6.0 | 0.00 | 0.00 | 0.00 | 62 | 1024.8 |
| 20260904162620 | 73 | 269 | 0.0 | 5.0 | 0.00 | 0.00 | 0.00 | 66 | 1024.8 |
| 20260904162020 | 72 | 0 | 0.0 | 7.0 | 0.00 | 0.00 | 0.00 | 67 | 1024.8 |
| 20260904161420 | 71 | 298 | 3.0 | 4.0 | 0.00 | 0.00 | 0.00 | 67 | 1024.8 |
| 20260904160819 | 71 | 117 | 2.0 | 6.0 | 0.00 | 0.00 | 0.00 | 66 | 1024.7 |
| 20260904160231 | 72 | 258 | 0.0 | 6.0 | 0.00 | 0.00 | 0.00 | 66 | 1024.7 |
| 20260904155620 | 71 | 266 | 0.0 | 5.0 | 0.00 | 0.00 | 0.00 | 71 | 1024.7 |
| 20260904155019 | 70 | 198 | 1.0 | 5.0 | 0.00 | 0.00 | 0.00 | 71 | 1024.7 |
| 20260904154420 | 69 | 202 | 0.0 | 6.0 | 0.00 | 0.00 | 0.00 | 73 | 1024.7 |
| 20260904153922 | 69 | 211 | 0.0 | 5.0 | 0.00 | 0.00 | 0.00 | 72 | 1024.8 |
| 20260904153220 | 69 | 265 | 0.0 | 7.0 | 0.00 | 0.00 | 0.00 | 74 | 1024.7 |
| 20260904152619 | 69 | 227 | 3.0 | 6.0 | 0.00 | 0.00 | 0.00 | 73 | 1024.8 |
| 20260904152020 | 69 | 268 | 0.0 | 5.0 | 0.00 | 0.00 | 0.00 | 74 | 1024.8 |
| 20260904151419 | 68 | 291 | 0.0 | 2.0 | 0.00 | 0.00 | 0.00 | 77 | 1024.8 |
| 20260904150909 | 67 | 75 | 0.0 | 3.0 | 0.00 | 0.00 | 0.00 | 78 | 1024.8 |
| 20260904150231 | 66 | 114 | 0.0 | 2.0 | 0.00 | 0.00 | 0.00 | 77 | 1024.9 |
| 20260904145619 | 65 | 59 | 0.0 | 0.0 | 0.00 | 0.00 | 0.00 | 78 | 1024.8 |
| 20260904145019 | 65 | 0 | 0.0 | 3.0 | 0.00 | 0.00 | 0.00 | 79 | 1024.9 |
| 20260904144419 | 64 | 59 | 0.0 | 3.0 | 0.00 | 0.00 | 0.00 | 79 | 1024.9 |
| 20260904143820 | 64 | 75 | 0.0 | 3.0 | 0.00 | 0.00 | 0.00 | 79 | 1024.9 |
| 20260904143219 | 64 | 107 | 0.0 | 4.0 | 0.00 | 0.00 | 0.00 | 80 | 1024.9 |
| 20260904142620 | 63 | 71 | 0.0 | 4.0 | 0.00 | 0.00 | 0.00 | 81 | 1024.9 |
| 20260904142020 | 62 | 91 | 0.0 | 3.0 | 0.00 | 0.00 | 0.00 | 83 | 1024.8 |
| 20260904141445 | 62 | 78 | 0.0 | 4.0 | 0.00 | 0.00 | 0.00 | 85 | 1024.8 |
| 20260904140844 | 61 | 71 | 0.0 | 4.0 | 0.00 | 0.00 | 0.00 | 87 | 1024.7 |
| 20260904140220 | 60 | 71 | 2.0 | 3.0 | 0.00 | 0.00 | 0.00 | 88 | 1024.8 |
| 20260904135644 | 60 | 65 | 0.0 | 4.0 | 0.00 | 0.00 | 0.00 | 90 | 1024.7 |
| 20260904135019 | 60 | 103 | 0.0 | 4.0 | 0.00 | 0.00 | 0.00 | 90 | 1024.7 |
| 20260904134419 | 59 | 78 | 2.0 | 3.0 | 0.00 | 0.00 | 0.00 | 91 | 1024.7 |
| 20260904133819 | 58 | 76 | 0.0 | 4.0 | 0.00 | 0.00 | 0.00 | 91 | 1024.6 |
| 20260904133219 | 58 | 75 | 2.0 | 0.0 | 0.00 | 0.00 | 0.00 | 91 | 1024.7 |
| 20260904132619 | 58 | 71 | 0.0 | 0.0 | 0.00 | 0.00 | 0.00 | 92 | 1024.7 |
| 20260904132019 | 58 | 40 | 0.0 | 0.0 | 0.00 | 0.00 | 0.00 | 92 | 1024.6 |
| 20260904131420 | 57 | 60 | 0.0 | 0.0 | 0.00 | 0.00 | 0.00 | 91 | 1024.5 |
| 20260904130819 | 57 | 57 | 0.0 | 0.0 | 0.00 | 0.00 | 0.00 | 91 | 1024.5 |
| 20260904130220 | 57 | 54 | 0.0 | 0.0 | 0.00 | 0.00 | 0.00 | 91 | 1024.5 |
| 20260904125619 | 56 | 342 | 0.0 | 0.0 | 0.00 | 0.00 | 0.00 | 91 | 1024.5 |
| 20260904125019 | 56 | 342 | 0.0 | 0.0 | 0.00 | 0.00 | 0.00 | 91 | 1024.5 |
| 20260904123820 | 56 | 342 | 0.0 | 0.0 | 0.00 | 0.00 | 0.00 | 91 | 1024.4 |
| 20260904123310 | 56 | 342 | 0.0 | 0.0 | 0.00 | 0.00 | 0.00 | 91 | 1024.3 |
| 20260904122620 | 56 | 342 | 0.0 | 0.0 | 0.00 | 0.00 | 0.00 | 91 | 1024.2 |
| 20260904122019 | 56 | 342 | 0.0 | 0.0 | 0.00 | 0.00 | 0.00 | 91 | 1024.2 |
| 20260904121420 | 56 | 342 | 0.0 | 0.0 | 0.00 | 0.00 | 0.00 | 91 | 1024.2 |
| 20260904120232 | 56 | 163 | 0.0 | 1.0 | 0.00 | 0.00 | 0.00 | 91 | 1024.0 |
| 20260904115644 | 56 | 114 | 0.0 | 2.0 | 0.00 | 0.00 | 0.00 | 91 | 1024.0 |
| 20260904115020 | 56 | 74 | 0.0 | 2.0 | 0.00 | 0.00 | 0.00 | 91 | 1024.0 |
| 20260904114419 | 55 | 37 | 0.0 | 0.0 | 0.00 | 0.00 | 0.00 | 90 | 1023.8 |
| 20260904113820 | 55 | 73 | 0.0 | 0.0 | 0.00 | 0.00 | 0.00 | 91 | 1023.8 |
| 20260904113219 | 55 | 79 | 0.0 | 0.0 | 0.00 | 0.00 | 0.00 | 91 | 1023.8 |
| 20260904112644 | 54 | 30 | 0.0 | 0.0 | 0.00 | 0.00 | 0.00 | 90 | 1023.8 |
| 20260904112019 | 55 | 71 | 0.0 | 0.0 | 0.00 | 0.00 | 0.00 | 90 | 1023.6 |
| 20260904111420 | 55 | 80 | 0.0 | 0.0 | 0.00 | 0.00 | 0.00 | 90 | 1023.6 |
| 20260904110819 | 55 | 145 | 0.0 | 2.0 | 0.00 | 0.00 | 0.00 | 90 | 1023.6 |
| 20260904110219 | 55 | 113 | 1.0 | 1.0 | 0.00 | 0.00 | 0.00 | 90 | 1023.5 |
| 20260904105620 | 55 | 114 | 0.0 | 2.0 | 0.00 | 0.00 | 0.00 | 90 | 1023.5 |
| 20260904105020 | 55 | 122 | 0.0 | 3.0 | 0.00 | 0.00 | 0.00 | 90 | 1023.4 |
| 20260904104419 | 55 | 89 | 2.0 | 3.0 | 0.00 | 0.00 | 0.00 | 89 | 1023.4 |